Location: Penton Mewsey
(51.2167°N, 1.5167°W)
Time: 17:00:47
(UTC+00:00)

CZ-4 R/B - Pass Details

Date: 30 March 2020
Orbit: 532 x 598 km, 97.8° (Epoch: 23 May)

Event Time Altitude Azimuth Distance (km) Brightness Sun altitude
Rises 19:31:13 0° 207° (SSW) 2,685 4.9 -9.2°
Reaches altitude 10° 19:33:57 10° 228° (SW) 1,792 4.3 -9.6°
Maximum altitude 19:36:29 17° 269° (W) 1,415 4.5 -9.9°
Drops below altitude 10° 19:39:02 10° 311° (NW) 1,795 5.2 -10.3°
Sets 19:41:48 0° 332° (NNW) 2,692 5.7 -10.7°
